TimeCST,TemperatureF,Dew PointF,Humidity,Sea Level PressureIn,VisibilityMPH,Wind Direction,Wind SpeedMPH,Gust SpeedMPH,PrecipitationIn,Events,Conditions,WindDirDegrees,DateUTC
12:53 AM,61.0,57.0,87,30.01,7.0,SSW,6.9,-,N/A,,Overcast,210,2014-03-03 06:53:00
1:53 AM,60.1,57.0,90,29.96,5.0,SSW,6.9,-,N/A,,Mostly Cloudy,200,2014-03-03 07:53:00
2:29 AM,59.0,57.0,93,29.93,5.0,South,10.4,-,N/A,,Scattered Clouds,180,2014-03-03 08:29:00
2:53 AM,60.1,57.0,90,29.94,5.0,SSW,6.9,-,N/A,,Scattered Clouds,200,2014-03-03 08:53:00
3:53 AM,59.0,55.9,90,29.91,5.0,South,8.1,-,N/A,,Clear,190,2014-03-03 09:53:00
4:53 AM,61.0,57.0,87,29.92,10.0,SSW,10.4,-,N/A,,Mostly Cloudy,200,2014-03-03 10:53:00
5:53 AM,62.1,57.9,86,29.92,10.0,SSW,9.2,-,0.01,Rain,Light Rain,210,2014-03-03 11:53:00
6:18 AM,63.0,57.9,84,29.93,10.0,SSW,10.4,-,0.00,,Overcast,210,2014-03-03 12:18:00
6:39 AM,63.0,57.9,84,29.94,10.0,NNW,5.8,-,0.00,,Overcast,330,2014-03-03 12:39:00
6:46 AM,63.0,57.9,84,29.94,10.0,Variable,4.6,-,0.00,Rain,Light Rain,0,2014-03-03 12:46:00
6:53 AM,62.1,57.9,86,29.94,9.0,Variable,4.6,-,0.00,Rain,Light Rain,0,2014-03-03 12:53:00
7:03 AM,62.1,59.0,90,29.95,1.8,WSW,4.6,-,0.02,Rain,Rain,250,2014-03-03 13:03:00
7:10 AM,62.1,59.0,90,29.95,3.0,WSW,5.8,-,0.02,Rain,Light Rain,250,2014-03-03 13:10:00
7:17 AM,62.1,59.0,90,29.95,6.0,WSW,6.9,-,0.02,Rain,Light Rain,240,2014-03-03 13:17:00
7:24 AM,62.1,59.0,90,29.95,6.0,SSW,8.1,-,0.02,Rain,Light Rain,210,2014-03-03 13:24:00
7:37 AM,63.0,59.0,87,29.95,9.0,SW,6.9,-,0.02,,Overcast,220,2014-03-03 13:37:00
7:49 AM,62.6,59.0,88,29.96,1.8,SW,6.9,-,0.05,Rain,Heavy Rain,220,2014-03-03 13:49:00
7:53 AM,63.0,59.0,87,29.96,1.2,SW,6.9,-,0.07,Rain,Heavy Rain,230,2014-03-03 13:53:00
8:05 AM,63.0,60.1,90,29.97,2.5,West,4.6,-,0.02,Rain,Light Rain,280,2014-03-03 14:05:00
8:12 AM,63.0,60.1,90,29.97,4.0,West,4.6,-,0.02,Rain,Light Rain,260,2014-03-03 14:12:00
8:21 AM,63.0,60.1,90,29.97,4.0,West,6.9,-,0.03,Rain,Light Rain,260,2014-03-03 14:21:00
8:45 AM,57.9,54.0,87,30.00,2.5,NW,15.0,27.6,0.03,Rain,Light Rain,320,2014-03-03 14:45:00
8:51 AM,57.2,53.6,88,30.00,4.0,NW,11.5,26.5,0.03,Rain,Light Rain,320,2014-03-03 14:51:00
8:52 AM,57.0,53.1,87,30.00,5.0,NW,9.2,24.2,0.03,Rain,Light Rain,320,2014-03-03 14:52:00
9:07 AM,57.0,53.1,87,30.02,4.0,NW,12.7,23.0,0.00,,Overcast,320,2014-03-03 15:07:00
9:53 AM,48.9,45.0,86,30.06,3.0,NNW,13.8,26.5,0.00,,Overcast,330,2014-03-03 15:53:00
10:17 AM,48.9,44.1,83,30.08,10.0,NNW,12.7,23.0,N/A,,Overcast,330,2014-03-03 16:17:00
10:48 AM,46.4,41.0,81,30.10,10.0,NNW,16.1,26.5,N/A,,Overcast,340,2014-03-03 16:48:00
10:53 AM,46.0,41.0,83,30.10,10.0,NNW,16.1,26.5,N/A,,Overcast,340,2014-03-03 16:53:00
11:35 AM,46.9,39.9,77,30.11,10.0,NNW,12.7,23.0,N/A,,Overcast,330,2014-03-03 17:35:00
11:53 AM,46.9,39.9,77,30.10,10.0,NW,10.4,20.7,N/A,,Overcast,320,2014-03-03 17:53:00
12:53 PM,45.0,37.9,76,30.10,10.0,NNW,15.0,23.0,N/A,,Overcast,340,2014-03-03 18:53:00
1:53 PM,45.0,37.0,74,30.10,10.0,NNW,9.2,19.6,N/A,,Overcast,340,2014-03-03 19:53:00
2:09 PM,45.0,36.0,71,30.10,10.0,NNW,9.2,23.0,N/A,,Overcast,340,2014-03-03 20:09:00
2:53 PM,44.1,34.0,68,30.11,10.0,NW,10.4,17.3,N/A,,Overcast,320,2014-03-03 20:53:00
3:53 PM,42.1,33.1,70,30.13,10.0,NNW,9.2,18.4,N/A,,Overcast,340,2014-03-03 21:53:00
4:53 PM,39.0,30.9,73,30.14,10.0,NNW,12.7,20.7,N/A,,Overcast,330,2014-03-03 22:53:00
5:53 PM,37.9,30.0,73,30.16,10.0,North,10.4,17.3,N/A,,Overcast,360,2014-03-03 23:53:00
6:25 PM,37.0,28.9,73,30.17,10.0,NNW,11.5,-,N/A,,Overcast,340,2014-03-04 00:25:00
6:53 PM,36.0,28.9,76,30.17,10.0,NNW,11.5,-,N/A,,Overcast,340,2014-03-04 00:53:00
7:53 PM,36.0,28.0,73,30.18,10.0,North,9.2,-,N/A,,Overcast,350,2014-03-04 01:53:00
8:53 PM,35.1,28.0,76,30.20,10.0,North,10.4,20.7,N/A,,Overcast,360,2014-03-04 02:53:00
9:53 PM,35.1,28.0,76,30.21,10.0,North,10.4,18.4,N/A,,Overcast,360,2014-03-04 03:53:00
10:43 PM,36.0,28.0,73,30.19,10.0,North,8.1,16.1,N/A,,Overcast,360,2014-03-04 04:43:00
10:53 PM,36.0,28.0,73,30.19,10.0,North,11.5,-,N/A,,Overcast,10,2014-03-04 04:53:00
11:53 PM,35.1,27.0,72,30.19,10.0,NNE,9.2,-,N/A,,Overcast,20,2014-03-04 05:53:00